Location: Unspecified
(0.0000°N, 0.0000°E)
Time: 01:56:38
(UTC+02:00)

ATLAS V CENTAUR R/B - Visible Passes

Search period start: 22 October 2014 00:00
Search period end: 31 October 2014 23:00
Orbit: 236 x 30302 km, 17.8° (Epoch: 21 October)

Date Brightness Start Highest point End Pass type
(mag) Time Alt. Az. Time Alt. Az. Time Alt. Az.
22 Oct 11.8 04:16:16 10° ESE 05:05:08 11° ESE 05:42:46 10° ESE visible
23 Oct 8.3 01:57:01 56° ESE 01:57:01 56° ESE 09:32:29 10° E visible
24 Oct 8.2 04:21:10 54° WSW 11:33:26 77° SSE 12:13:19 10° E visible
25 Oct 6.9 06:47:17 10° W 14:34:28 77° NNW 14:45:06 10° ENE visible
26 Oct 8.8 00:20:40 25° ESE 00:20:40 25° ESE 06:29:52 10° E visible
27 Oct 8.1 01:43:56 74° SSE 01:43:56 74° SSE 09:27:21 10° E visible
28 Oct 8.0 04:06:51 34° WSW 11:39:56 86° SSE 12:02:14 10° ENE visible
30 Oct 8.4 00:04:18 42° ESE 00:04:18 42° ESE 07:31:40 10° E visible
31 Oct 8.1 02:26:20 66° SW 09:07:26 74° SSE 10:14:57 10° E visible
